Regional Weather Roundup
Issued by NWS

Home | Current Version | Previous Version | Graphics & Text | Print | Product List | Glossary On
Versions: 1 2 3 4 5 6 7 8 9 10 11 12 13 14 15 16 17 18 19 20 21 22 23 24 25 26 27 28 29 30 31 32 33 34 35 36 37 38 39 40 41 42 43 44 45 46 47 48 49 50
569
ASUS43 KTOP 230759
RWRKS

WEATHER ROUNDUP FOR KANSAS
NATIONAL WEATHER SERVICE GOODLAND KS
300 AM CDT SUN APR 23 2017

NOTE:  "FAIR" INDICATES FEW OR NO CLOUDS BELOW 12,000 FEET WITH NO
SIGNIFICANT WEATHER AND/OR OBSTRUCTIONS TO VISIBILITY.

KSZ001>006-013>018-027>032-041>047-230900-
NORTHWEST KANSAS

CITY           SKY/WX    TMP DP  RH WIND       PRES   REMARKS
GOODLAND       CLEAR     42  31  64 SW12      30.20F
HAYS           CLEAR     36  32  85 CALM      30.22F
HILL CITY      CLEAR     36  31  82 W3        30.22F
RUSSELL        CLEAR     37  32  82 SW6       30.21S
$$

KSZ061>065-074>080-084>089-230900-
SOUTHWEST KANSAS

CITY           SKY/WX    TMP DP  RH WIND       PRES   REMARKS
DODGE CITY     CLEAR     36  31  82 W6        30.24F
ELKHART          N/A     43  29  58 S7          N/A
GARDEN CITY    CLEAR     37  31  78 CALM      30.23F
GREAT BEND     CLEAR     35  33  92 W6        30.22F
LIBERAL        CLEAR     36  27  69 W7        30.26F
$$

KSZ066>073-081>083-090>101-230900-
SOUTHEAST KANSAS

CITY           SKY/WX    TMP DP  RH WIND       PRES   REMARKS
CHANUTE        CLEAR     45  35  68 N6        30.16S
COFFEYVILLE    CLEAR     43  40  89 N7        30.15F
HUTCHINSON     CLEAR     39  36  89 CALM      30.20F
MEDICINE LODGE   N/A     39  36  89 NW3       30.21F
NEWTON         CLEAR     44  34  67 N6        30.20F
PARSONS        CLEAR     44  38  79 N3        30.16S
WICHITA INTL   CLEAR     42  37  82 NW6       30.20S
WICHITA JABRA  CLEAR     44  35  70 N9        30.19F
WICHITA MCCONL CLEAR     45  34  66 N5        30.19F
WINFIELD       CLEAR     40  37  89 NW6       30.20S
$$

KSZ007>012-019>026-033>040-048>060-102>105-230900-
NORTHEAST KANSAS

CITY           SKY/WX    TMP DP  RH WIND       PRES   REMARKS
CONCORDIA      CLEAR     40  33  76 CALM      30.20F
EMPORIA        CLEAR     41  36  82 NW5       30.18F
LAWRENCE       CLEAR     38  35  89 NW7       30.18S
MANHATTAN      CLEAR     37  34  89 CALM      30.20F
OLATHE IND     CLEAR     43  31  62 CALM      30.17F
OLATHE EXE     CLEAR     46  32  58 N5        30.16F
SALINA         CLEAR     43  35  73 CALM      30.22R
TOPEKA BILLARD CLEAR     41  40  96 CALM      30.19S
TOPEKA FORBES  CLEAR     40  35  83 NW7       30.18S
$$




USA.gov is the U.S. government's official web portal to all federal, state and local government web resources and services.